Location: Namasale
(1.5000°N, 32.6167°E)
Time: 20:41:39
(UTC+00:00)

SR - Pass Details

Date: 11 April 2021
Orbit: 573 x 882 km, 66.7° (Epoch: 13 May)

Event Time Altitude Azimuth Distance (km) Brightness Sun altitude
Rises 17:47:49 0° 337° (NNW) 3,289 ? -28.7°
Reaches altitude 10° 17:50:20 10° 335° (NNW) 2,315 ? -29.3°
Enters shadow 17:54:16 49° 320° (NW) 946 ? -30.3°
